Flag for U.S.A. Weather past 2 weeks in Aspen, Colorado, U.S.A.

Now
35 °F

Clear.


Feels Like: 28 °F
Forecast: 36 / 62 °F
Wind: 9 mph from Southwest

Location: Aspen-Pitkin County Airport

Current Time: Mar 31, 2015 at 4:34:52 AM

Latest Report: Mar 31, 2015 at 3:53 AM


Visibility: 10 mi

Pressure: 29.98 "Hg

Humidity: 54%

Dew point: 20 °F

Location of AspenLocation

Historic Weather in Aspen — Graph

°F

Aspen temperature yesterday

Maximum temperature yesterday: 62 °F (at 3:53 PM)
Minimum temperature yesterday: 30 °F (at 6:53 AM)
Average temperature yesterday: 46 °F

Past Weeks' High & Low Weather Summary

 TemperatureHumidityPressure
High64 °F (Mar 17, 2:53 PM)100% (Mar 19, 2:01 AM)30.39 "Hg (Mar 19, 2:01 AM)
Low19 °F (Mar 26, 6:53 AM)12% (Mar 29, 4:53 PM)29.71 "Hg (Mar 23, 5:53 PM)
Average42 °F51%30.03 "Hg
* Reported Mar 16 2:53 AM — Mar 31 2:53 AM, Aspen, Weather by CustomWeather, © 2015

Note: Actual official high and low records may vary slightly from our data, if they occured in-between our weather recording intervals... More about our weather records

Advertising

Aspen weather history for previous 24 hours

 ConditionsComfort  
Time TempWeatherWind HumidityBarometerVisibility
2:53 AM
Tue, Mar 31
36 °FClear.9 mph52%30.00 "Hg10 mi
1:53 AM39 °FClear.8 mph45%30.00 "Hg10 mi
12:53 AM39 °FClear.8 mph46%30.01 "Hg10 mi
11:53 PM
Mon, Mar 30
39 °FClear.9 mph48%30.03 "Hg10 mi
10:53 PM41 °FClear.8 mph45%30.04 "Hg10 mi
9:53 PM41 °FClear.10 mph47%30.08 "Hg10 mi
8:53 PM43 °FClear.8 mph43%30.08 "Hg10 mi
7:53 PM47 °FSunny.8 mph37%30.09 "Hg10 mi
6:53 PM56 °FPartly sunny.5 mph23%30.04 "Hg10 mi
5:53 PM59 °FPassing clouds.10 mph18%30.01 "Hg10 mi
4:53 PM62 °FPassing clouds.9 mph13%29.98 "Hg10 mi
3:53 PM62 °FScattered clouds.18 mph14%30.00 "Hg10 mi
2:53 PM61 °FSunny.14 mph14%30.01 "Hg10 mi
1:53 PM61 °FSunny.21 mph13%30.04 "Hg10 mi
12:53 PM60 °FSunny.17 mph12%30.06 "Hg10 mi
11:53 AM58 °FSunny.7 mph15%30.08 "Hg10 mi
10:53 AM54 °FSunny.9 mph18%30.11 "Hg10 mi
9:53 AM47 °FSunny.6 mph30%30.14 "Hg10 mi
8:53 AM42 °FSunny.No wind32%30.13 "Hg10 mi
7:53 AM31 °FClear.5 mph57%30.16 "Hg10 mi
6:53 AM30 °FClear.No wind54%30.12 "Hg10 mi
5:53 AM31 °FClear.7 mph52%30.07 "Hg10 mi
4:53 AM31 °FClear.7 mph54%30.06 "Hg10 mi
Weather by CustomWeather, © 2015

See weather overviewHow to use our weather pages